Regional Weather Roundup
Issued by NWS

Home | Current Version | Previous Version | Graphics & Text | Print | Product List | Glossary On
Versions: 1 2 3 4 5 6 7 8 9 10 11 12 13 14 15 16 17 18 19 20 21 22 23 24 25 26 27
000
ASUS45 KSLC 221410
RWRUT

UTAH REGIONAL WEATHER ROUNDUP
NATIONAL WEATHER SERVICE SALT LAKE CITY UT
800 AM MDT SAT APR 22 2017

UTZ001>011-023>025-221500-

NORTHERN UTAH

CITY           SKY/WX    TMP DP  RH WIND       PRES   REMARKS
BRIGHAM CITY   SUNNY     36  31  81 W5        30.27R WCI  32
HILL AFB       SUNNY     38  26  62 E15       30.25R WCI  29
LOGAN          SUNNY     36  31  82 CALM      30.27S
OGDEN          SUNNY     39  29  67 S6        30.25R WCI  35
SALT LAKE CITY MOSUNNY   42  31  64 S5        30.25R
TOOELE VALLEY  SUNNY     37  30  75 S9        30.25S WCI  31
WENDOVER       SUNNY     40  31  70 SW3       30.25R
HEBER CITY     MOSUNNY   30  27  86 CALM      30.28R
WEST JORDAN    SUNNY     43  37  82 CALM      30.25S

$$

UTZ011>015-024>027-221500-

CENTRAL/NORTHEAST UTAH

CITY           SKY/WX    TMP DP  RH WIND       PRES   REMARKS
PROVO AIRPORT  MOSUNNY   37  29  72 CALM      30.28R
MOAB/CANYONLAN SUNNY     44  17  33 NW6       30.21R
DELTA          MOSUNNY   36  27  69 NE6       30.25R WCI  31
PRICE          SUNNY     42  18  37 CALM      30.25R
ROOSEVELT      SUNNY     34  21  60 CALM      30.31R
VERNAL         SUNNY     40  20  44 CALM      30.29R

$$

UTZ013>016-019>022-027-221500-

SOUTHERN UTAH

CITY           SKY/WX    TMP DP  RH WIND       PRES   REMARKS
BRYCE CANYON   SUNNY     32  18  56 NE3       30.25R
CEDAR CITY     SUNNY     34  22  61 CALM      30.20R
MILFORD        MOSUNNY   35  25  66 CALM      30.23R
ST GEORGE      MOSUNNY   52  22  30 SE3       30.14R
HANKSVILLE     SUNNY     39  18  41 CALM      30.25R
BLANDING       SUNNY     42  14  32 CALM      30.26R

$$

REGIONAL REPORTS     COLORADO/ARIZONA

CITY           SKY/WX    TMP DP  RH WIND       PRES   REMARKS
CRAIG, CO      SUNNY     32  27  81 CALM      30.30R
GRAND JUNCTION SUNNY     46  23  40 VRB5      30.23R
RIFLE, CO      SUNNY     36  30  79 E6        30.27R WCI  31
MONTROSE, CO   SUNNY     36  23  59 S6        30.26R WCI  31
CORTEZ, CO     SUNNY     34  19  54 NE5       30.20R WCI  30
COLORADO CITY    N/A     41  25  52 CALM      30.18S
PAGE, AZ       SUNNY     52  22  30 SE3       30.18R
GRAND CANYON   MOSUNNY   46  20  35 E10       30.19R
KINGMAN, AZ    SUNNY     53  25  33 E8        30.05R
FLAGSTAFF, AZ  SUNNY     45  16  31 E8        30.19R

$$

REGIONAL REPORTS    NEVADA/IDAHO/WYOMING

CITY           SKY/WX    TMP DP  RH WIND       PRES   REMARKS
LAS VEGAS, NV  MOSUNNY   63  19  18 E9        30.06R
ELY, NY        MOSUNNY   28  22  78 S5        30.22S WCI  23
ELKO, NV       SUNNY     34  26  72 CALM      30.16S
POCATELLO, ID  CLOUDY    35  31  85 N6        30.27R WCI  30
BURLEY, ID     MOSUNNY   34  29  82 CALM      30.22S
FORT BRIDGER,    N/A     33  26  75 W6        30.31R WCI  27
EVANSTON, WY   SUNNY     29  23  78 E3        30.27R
ROCK SPRINGS,  SUNNY     33  24  69 S3        30.29R
KEMMERER, WY     N/A     30  25  80 N8        30.28S WCI  23

$$




USA.gov is the U.S. government's official web portal to all federal, state and local government web resources and services.